Current Version              Previous Version:    01  02  03  04  05  06  07  08  09  10  11  12  13  14  15  16  17  18  19  20  21  22  23  24  25  26  27  28  29  30  
   31  32  33  34  35  36  37  38  39  40  41  42  43  44  45  46  47  48  49  50  51  52  53  54  55  56  57  58  59  60  

[Printable]
967
ASUS44 KFWD 180015
RWRTX
NORTH TEXAS HOURLY WEATHER ROUNDUP
NATIONAL WEATHER SERVICE FORT WORTH TX
700 PM CDT THU APR 17 2014

NOTE: "FAIR" INDICATES FEW OR NO CLOUDS BELOW 12,000 FEET WITH NO
SIGNIFICANT WEATHER AND/OR OBSTRUCTIONS TO VISIBILITY.

TXZ118-119-180100-
DALLAS/FORT WORTH METROPLEX

CITY           SKY/WX    TMP DP  RH WIND       PRES   REMARKS
DFW AIRPORT    LGT RAIN  59  55  87 NE9       30.14S FOG
6HR MIN TEMP:  59; 6HR MAX TEMP:  63; 6HR PCP:  0.01;

DALLAS LOVE    DRIZZLE   61  52  72 N5        30.14S
6HR MIN TEMP:  60; 6HR MAX TEMP:  64; 6HR PCP: TRACE;

FTW MEACHAM    CLOUDY    59  57  93 NE9       30.13S FOG
6HR MIN TEMP:  58; 6HR MAX TEMP:  60; 6HR PCP:  0.01;

DAL-EXECUTIVE  CLOUDY    62  54  74 N6        30.14R
6HR MIN TEMP:  62; 6HR MAX TEMP:  65;

FTW-ALLIANCE   DRIZZLE   57  55  93 NE8       30.14S FOG
6HR MIN TEMP:  57; 6HR MAX TEMP:  58; 6HR PCP:  0.05;

FTW-NAS-JRB    LGT RAIN  61  54  77 NE12      30.18S FOG
6HR MIN TEMP:  60; 6HR MAX TEMP:  62; 6HR PCP:  0.02;

FTW-SPINKS     CLOUDY    63  55  77 NE10      30.15R HAZE
ARLINGTON      CLOUDY    60  55  83 NE9       30.13S
6HR MIN TEMP:  57; 6HR MAX TEMP:  63; 6HR PCP:  0.01;

GRAND PRAIRIE  MOSUNNY   59  55  88 NE9       30.16S
ADDISON        CLOUDY    61  52  72 NE8       30.16R
MESQUITE       CLOUDY    63  52  67 N6        30.14R
LANCASTER      CLOUDY    63  51  65 N5        30.15R
6HR MIN TEMP:  62; 6HR MAX TEMP:  64;

$$

TXZ091>094-102>105-117-120-121-131>134-180100-
NORTH CENTRAL TEXAS

CITY           SKY/WX    TMP DP  RH WIND       PRES   REMARKS
SHRMAN/DENISON CLOUDY    60  51  70 SE3       30.17S
6HR MIN TEMP:  60; 6HR MAX TEMP:  64;

GAINESVILLE    CLOUDY    57  52  83 E5        30.18S
6HR MIN TEMP:  56; 6HR MAX TEMP:  60;

BOWIE          CLOUDY    56  55  94 NE6       30.16R
6HR MIN TEMP:  56; 6HR MAX TEMP:  62; 6HR PCP:  0.02;

BRIDGEPORT     DRIZZLE   57  56  99 E6        30.16S
6HR MIN TEMP:  56; 6HR MAX TEMP:  60; 6HR PCP:  0.07;

DECATUR        CLOUDY    55  55 100 E9        30.15R FOG
6HR MIN TEMP:  55; 6HR MAX TEMP:  60; 6HR PCP:  0.05;

DENTON         CLOUDY    57  55  93 NE8       30.15S
6HR MIN TEMP:  57; 6HR MAX TEMP:  62; 6HR PCP:  0.02;

MCKINNEY       CLOUDY    61  51  70 NE3       30.15S
6HR MIN TEMP:  61; 6HR MAX TEMP:  64;

GREENVILLE     CLOUDY    63  50  63 N3        30.15S
ROCKWALL       CLOUDY    63  51  65 N7        30.13S
6HR MIN TEMP:  63; 6HR MAX TEMP:  66;

TERRELL        CLOUDY    65  51  60 N7        30.14R
6HR MIN TEMP:  65; 6HR MAX TEMP:  68;

WAXAHACHIE     CLOUDY    62  51  66 NE5       30.14S
6HR MIN TEMP:  60; 6HR MAX TEMP:  63;

CLEBURNE       CLOUDY    61  61 100 E6        30.15S FOG
GRANBURY       CLOUDY    60  57  92 NE3       30.15R FOG
6HR MIN TEMP:  59; 6HR MAX TEMP:  65; 6HR PCP:  0.06;

$$

TXZ083>090-098>101-113>116-127>130-139>142-154-155-180100-
WESTERN NORTH TEXAS

CITY           SKY/WX    TMP DP  RH WIND       PRES   REMARKS
WICHITA FALLS  LGT RAIN  55  54  94 E8        30.16R FOG
6HR MIN TEMP:  57; 6HR MAX TEMP:  67; 6HR PCP: TRACE;

WF-KICKAPOO    DRIZZLE   57  55  95 E8        30.17R
6HR MIN TEMP:  57; 6HR MAX TEMP:  69;

VERNON         CLOUDY    53  47  81 NE9       30.19R
6HR MIN TEMP:  46; 6HR MAX TEMP:  77; 6HR PCP:  0.03;

ABILENE        CLOUDY    57  51  80 N15       30.13R
                                      6HR PCP: TRACE;

ABILENE-DYESS  PTSUNNY   57  52  82 N15       30.12R
6HR MIN TEMP:  57; 6HR MAX TEMP:  65;

BRECKENRIDGE   CLOUDY    64  54  68 S6        30.11S
6HR MIN TEMP:  62; 6HR MAX TEMP:  65;

GRAHAM         CLOUDY    59  55  86 E9        30.12R
6HR MIN TEMP:  59; 6HR MAX TEMP:  66;

MINERAL WELLS  CLOUDY    58  57  97 E7        30.12S FOG
6HR MIN TEMP:  58; 6HR MAX TEMP:  60; 6HR PCP:  0.05;

STEPHENVILLE   CLOUDY    59  56  92 CALM      30.15S
6HR MIN TEMP:  58; 6HR MAX TEMP:  60; 6HR PCP:  0.05;

COMANCHE       CLOUDY    59  58  97 E3        30.13R
6HR MIN TEMP:  56; 6HR MAX TEMP:  60;

COLEMAN        CLOUDY    61  55  81 SE6       30.11F
6HR MIN TEMP:  58; 6HR MAX TEMP:  62;

BRADY          CLOUDY    61  57  88 E7        30.10R
$$

TXZ143>147-156>162-174-175-180100-
CENTRAL TEXAS

CITY           SKY/WX    TMP DP  RH WIND       PRES   REMARKS
WACO           CLOUDY    63  59  88 N5        30.12R
6HR MIN TEMP:  63; 6HR MAX TEMP:  69; 6HR PCP:  0.01;

WACO-TSTC      CLOUDY    63  55  77 N7        30.11
WACO-MCGREGOR  CLOUDY    63  54  72 N5        30.13R
6HR MIN TEMP:  63; 6HR MAX TEMP:  70;

HILLSBORO      CLOUDY    63  54  73 N7        30.13R
6HR MIN TEMP:  60; 6HR MAX TEMP:  67;

CORSICANA      CLOUDY    69  53  56 NE3       30.12R
6HR MIN TEMP:  67; 6HR MAX TEMP:  73;

MEXIA          CLOUDY    66  56  68 CALM      30.10R
6HR MIN TEMP:  65; 6HR MAX TEMP:  70;

HEARNE         CLOUDY    69  59  69 CALM      30.09R
6HR MIN TEMP:  68; 6HR MAX TEMP:  72;

CAMERON        CLOUDY    69  57  65 CALM      30.10R
6HR MIN TEMP:  67; 6HR MAX TEMP:  71;

TEMPLE         CLOUDY    64  55  72 N6        30.13R
6HR MIN TEMP:  63; 6HR MAX TEMP:  66;

KILLEEN        CLOUDY    63  57  82 NE3       30.10R
                                      6HR PCP: TRACE;

KILLEEN-SKYLRK MOSUNNY   63  55  77 CALM      30.09R
6HR MIN TEMP:  61; 6HR MAX TEMP:  64;

FORT HOOD      CLOUDY    65  59  81 CALM      30.11R
6HR MIN TEMP:  62; 6HR MAX TEMP:  67; 6HR PCP: TRACE;

GATESVILLE     MOSUNNY   63  61  94 CALM      30.13S FOG
HAMILTON       CLOUDY    62  59  91 CALM      30.13R
6HR MIN TEMP:  58; 6HR MAX TEMP:  62;

$$

TXZ095>097-106>112-122>126-135>138-148>153-164>167-180100-
EAST TEXAS

CITY           SKY/WX    TMP DP  RH WIND       PRES   REMARKS
PARIS          CLOUDY    63  48  59 E6        30.18R
6HR MIN TEMP:  63; 6HR MAX TEMP:  66;

SULPHUR SPRNGS CLOUDY    64  49  58 NE5       30.17S
6HR MIN TEMP:  64; 6HR MAX TEMP:  68;

CLARKSVILLE    CLOUDY    64  47  53 CALM      30.17R
6HR MIN TEMP:  64; 6HR MAX TEMP:  68;

MOUNT PLEASANT CLOUDY    64  47  54 CALM      30.16S
6HR MIN TEMP:  64; 6HR MAX TEMP:  68;

GILMER         PTCLDY    64  46  52 NE5       30.16R
MINEOLA        MOSUNNY   66  48  52 NE3       30.15R
TYLER          CLOUDY    68  48  48 NE7       30.13R
6HR MIN TEMP:  65; 6HR MAX TEMP:  71;

LONGVIEW       PTCLDY    67  44  43 NE6       30.13R
6HR MIN TEMP:  62; 6HR MAX TEMP:  69;

MARSHALL       CLEAR     66  47  51 E7        30.15R
6HR MIN TEMP:  61; 6HR MAX TEMP:  68;

ATHENS         CLOUDY    66  50  55 E3        30.11S
PALESTINE      CLOUDY    69  51  53 E5        30.13R
JACKSONVILLE   MOCLDY    65  49  56 NE3       30.15R
HENDERSON      CLEAR     65  42  42 E3        30.14R
6HR MIN TEMP:  64; 6HR MAX TEMP:  69;

NACOGDOCHES    CLEAR     66  46  48 E9        30.12R
6HR MIN TEMP:  63; 6HR MAX TEMP:  70;

LUFKIN         CLEAR     69  51  52 E7        30.11R
6HR MIN TEMP:  68; 6HR MAX TEMP:  73;

$$

SUPPLEMENTAL OBSERVATIONS (CENTRAL)

CITY           SKY/WX    TMP DP  RH WIND       PRES   REMARKS
LAKE TEXOMA      N/A     61  45  55 E2          N/A
CADDO GRASSLND   N/A     64  45  48 E2          N/A
PAT MAYSE LAKE   N/A     63  46  55 NE3         N/A
ATHENS           N/A     66  46  48 NE3         N/A
PALESTINE        N/A     66  52  59 E2          N/A
LAKE LIMESTONE   N/A     68  55  64 NE6         N/A
MCGREGOR         N/A     63  57  82 N2          N/A
TEMPLE           N/A     64  57  77 CALM        N/A
$$

SUPPLEMENTAL OBSERVATIONS (WEST)